FW4657 Weather Reports


Display with metric or nautical units.
time (UTC)temp
F
wind
direction
speed
MPH
gust
MPH
rain 1hr
in
rain 24hr
in
rain mn
in
humidity
%
barometer
mb
20260504202042 66 1 0.0 2.0 0.00 0.00 0.00 48 1008.3
20260504201539 64 20 0.0 2.0 0.00 0.00 0.00 51 1007.9
20260504201037 64 226 0.0 1.0 0.00 0.00 0.00 50 1008.3
20260504200533 64 184 0.0 0.0 0.00 0.00 0.00 50 1008.3
20260504200031 64 317 1.0 4.0 0.00 0.00 0.00 50 1008.3
20260504195526 64 8 1.0 2.0 0.00 0.00 0.00 51 1008.3
20260504195023 66 40 0.0 2.0 0.00 0.00 0.00 50 1008.3
20260504194520 63 84 0.0 4.0 0.00 0.00 0.00 52 1008.6
20260504194015 64 320 0.0 1.0 0.00 0.00 0.00 51 1008.6
20260504193512 64 339 0.0 2.0 0.00 0.00 0.00 51 1008.6
20260504193011 63 1 3.0 3.0 0.00 0.00 0.00 53 1008.6
20260504192509 63 302 1.0 3.0 0.00 0.00 0.00 53 1009.0
20260504192007 62 234 0.0 3.0 0.00 0.00 0.00 54 1009.0
20260504191504 62 89 1.0 4.0 0.00 0.00 0.00 54 1009.0
20260504191000 60 27 2.0 4.0 0.00 0.00 0.00 55 1009.0
20260504190455 60 230 0.0 2.0 0.00 0.00 0.00 56 1009.0
20260504185952 62 80 0.0 0.0 0.00 0.00 0.00 55 1009.0
20260504185449 60 33 2.0 3.0 0.00 0.00 0.00 55 1009.0
20260504184946 60 12 1.0 4.0 0.00 0.00 0.00 56 1009.3
20260504184441 60 294 5.0 6.0 0.00 0.00 0.00 55 1009.0
20260504183937 60 37 2.0 3.0 0.00 0.00 0.00 56 1009.3
20260504183435 61 36 2.0 3.0 0.00 0.00 0.00 56 1009.3
20260504182933 59 229 1.0 3.0 0.00 0.00 0.00 58 1009.3
20260504182429 59 98 0.0 0.0 0.00 0.00 0.00 57 1009.3
20260504181926 59 183 0.0 4.0 0.00 0.00 0.00 58 1009.3
20260504181423 61 62 0.0 1.0 0.00 0.00 0.00 60 1009.3
20260504180922 59 65 0.0 1.0 0.00 0.00 0.00 59 1009.0
20260504180421 58 172 0.0 2.0 0.00 0.00 0.00 61 1009.3
20260504175918 58 332 0.0 4.0 0.00 0.00 0.00 61 1009.3
20260504175415 58 8 1.0 2.0 0.00 0.00 0.00 60 1009.6
20260504174913 58 122 1.0 2.0 0.00 0.00 0.00 60 1009.3
20260504174410 58 320 1.0 3.0 0.00 0.00 0.00 59 1009.3
20260504173908 59 46 0.0 1.0 0.00 0.00 0.00 60 1009.3
20260504173404 58 316 1.0 3.0 0.00 0.00 0.00 61 1009.3
20260504172901 58 221 0.0 0.0 0.00 0.00 0.00 61 1009.6
20260504172357 58 334 1.0 2.0 0.00 0.00 0.00 61 1009.6
20260504171853 57 47 0.0 2.0 0.00 0.00 0.00 62 1009.6
20260504171351 58 29 0.0 2.0 0.00 0.00 0.00 59 1009.6
20260504170848 58 336 0.0 1.0 0.00 0.00 0.00 60 1009.6
20260504170344 58 76 2.0 3.0 0.00 0.00 0.00 59 1009.6
20260504160303 61 75 2.0 3.0 0.00 0.00 0.00 52 1007.9
20260504150728 60 203 1.0 3.0 0.00 0.00 0.00 55 1008.3
20260504150225 59 147 0.0 4.0 0.00 0.00 0.00 56 1008.6
20260504141154 58 75 1.0 2.0 0.00 0.00 0.00 59 1009.6
20260504140651 57 48 1.0 3.0 0.00 0.00 0.00 60 1009.6
20260504140146 57 18 0.0 1.0 0.00 0.00 0.00 61 1009.6
20260504130615 53 52 0.0 1.0 0.00 0.00 0.00 65 1010.8
20260504130112 51 72 2.0 2.0 0.00 0.00 0.00 68 1010.8
20260504110503 41 87 0.0 0.0 0.00 0.00 0.00 76 1011.4
20260504100419 33 322 0.0 0.0 0.00 0.00 0.00 90 1011.1
20260504081812 30 17 0.0 0.0 0.00 0.00 0.00 94 1011.4
20260504081309 30 314 0.0 0.0 0.00 0.00 0.00 94 1011.1
20260504080805 30 322 0.0 0.0 0.00 0.00 0.00 94 1011.1
20260504080302 30 323 0.0 0.0 0.00 0.00 0.00 94 1011.1
20260504070229 29 301 0.0 0.0 0.00 0.00 0.00 94 1011.4
20260504060150 30 13 0.0 0.0 0.00 0.00 0.00 93 1010.8
20260504050618 31 300 0.0 0.0 0.00 0.00 0.00 91 1010.8
20260504050115 31 292 0.0 0.0 0.00 0.00 0.00 91 1010.8
20260504045612 31 358 0.0 0.0 0.00 0.00 0.00 90 1010.8
20260504045107 31 333 0.0 0.0 0.00 0.00 0.00 91 1010.8
20260504044605 31 296 0.0 0.0 0.00 0.00 0.00 90 1010.8
20260504044102 31 13 0.0 0.0 0.00 0.00 0.00 89 1010.8
20260504043559 31 256 0.0 0.0 0.00 0.00 0.00 89 1010.8
20260504043055 31 322 0.0 0.0 0.00 0.00 0.00 89 1011.1
20260504042552 32 304 0.0 0.0 0.00 0.00 0.00 88 1010.8
20260504042049 32 325 0.0 0.0 0.00 0.00 0.00 87 1010.8
20260504041545 32 313 0.0 0.0 0.00 0.00 0.00 88 1010.8
20260504041042 32 291 0.0 0.0 0.00 0.00 0.00 87 1010.8
20260504040539 32 340 0.0 0.0 0.00 0.00 0.00 87 1010.8
20260504040036 33 341 0.0 0.0 0.00 0.00 0.00 88 1010.8
20260504035532 32 284 0.0 0.0 0.00 0.00 0.00 87 1010.8
20260504035029 32 286 0.0 0.0 0.00 0.00 0.00 87 1010.8
20260504034527 32 333 0.0 0.0 0.00 0.00 0.00 86 1010.8
20260504034023 33 298 0.0 0.0 0.00 0.00 0.00 85 1010.8
20260504033521 33 293 0.0 0.0 0.00 0.00 0.00 85 1010.8
20260504033019 35 312 0.0 0.0 0.00 0.00 0.00 83 1010.8
20260504032515 35 331 0.0 0.0 0.00 0.00 0.00 82 1010.8
20260504032012 35 332 0.0 0.0 0.00 0.00 0.00 83 1010.8
20260504031509 36 320 0.0 0.0 0.00 0.00 0.00 81 1010.8
20260504031005 35 274 0.0 0.0 0.00 0.00 0.00 83 1010.4
20260504030503 35 314 0.0 0.0 0.00 0.00 0.00 81 1010.4
20260504025958 36 313 0.0 0.0 0.00 0.00 0.00 80 1010.4
20260504025456 36 336 0.0 0.0 0.00 0.00 0.00 79 1010.8
20260504024952 37 303 0.0 0.0 0.00 0.00 0.00 81 1010.8
20260504024449 37 339 0.0 0.0 0.00 0.00 0.00 80 1010.8
20260504023946 37 292 0.0 0.0 0.00 0.00 0.00 80 1010.8
20260504023443 37 286 0.0 0.0 0.00 0.00 0.00 79 1010.8
20260504022938 37 207 0.0 0.0 0.00 0.00 0.00 80 1010.8
20260504022435 37 327 0.0 0.0 0.00 0.00 0.00 78 1010.8
20260504021932 37 195 0.0 0.0 0.00 0.00 0.00 79 1010.4
20260504021429 37 207 0.0 0.0 0.00 0.00 0.00 79 1010.8
20260504020926 37 331 0.0 0.0 0.00 0.00 0.00 80 1010.4
20260504020423 37 276 0.0 0.0 0.00 0.00 0.00 79 1010.4
20260504015920 37 319 0.0 0.0 0.00 0.00 0.00 80 1010.4
20260504015415 37 314 0.0 0.0 0.00 0.00 0.00 76 1010.8
20260504014912 38 287 0.0 0.0 0.00 0.00 0.00 76 1010.4
20260504014408 38 299 0.0 0.0 0.00 0.00 0.00 75 1010.4
20260504013905 38 272 0.0 0.0 0.00 0.00 0.00 75 1010.4
20260504013403 38 246 0.0 0.0 0.00 0.00 0.00 76 1010.8
20260504012859 40 213 0.0 0.0 0.00 0.00 0.00 72 1010.8
20260504012357 40 319 0.0 0.0 0.00 0.00 0.00 72 1010.8
20260504011854 40 272 0.0 0.0 0.00 0.00 0.00 71 1010.4
20260504011351 40 232 0.0 0.0 0.00 0.00 0.00 73 1010.4
20260504010847 40 227 0.0 0.0 0.00 0.00 0.00 72 1010.0
20260504010343 40 298 0.0 0.0 0.00 0.00 0.00 69 1010.4
20260504005839 41 228 0.0 0.0 0.00 0.00 0.00 69 1010.0
20260504005336 41 306 0.0 0.0 0.00 0.00 0.00 69 1010.0
20260504004834 41 296 0.0 0.0 0.00 0.00 0.00 69 1010.0
20260504004331 41 176 0.0 0.0 0.00 0.00 0.00 69 1009.6
20260504003827 41 284 0.0 0.0 0.00 0.00 0.00 67 1010.0
20260504003325 41 272 0.0 0.0 0.00 0.00 0.00 67 1009.6
20260504002821 41 239 0.0 0.0 0.00 0.00 0.00 70 1009.6
20260504002318 41 179 1.0 1.0 0.00 0.00 0.00 68 1009.6
20260504001816 42 205 0.0 1.0 0.00 0.00 0.00 66 1009.6
20260504001313 42 302 0.0 0.0 0.00 0.00 0.00 66 1009.6
20260504000810 42 4 1.0 1.0 0.00 0.00 0.00 65 1009.6
20260504000307 43 220 1.0 3.0 0.00 0.00 0.00 65 1009.6
20260503235804 43 223 2.0 3.0 0.00 0.00 0.00 63 1009.6
20260503235302 43 294 0.0 0.0 0.00 0.00 0.00 61 1009.3
20260503234759 43 309 0.0 0.0 0.00 0.00 0.00 62 1009.3
20260503234257 44 293 1.0 3.0 0.00 0.00 0.00 58 1009.3
20260503233754 45 314 0.0 0.0 0.00 0.00 0.00 58 1009.3
20260503233249 44 235 2.0 3.0 0.00 0.00 0.00 57 1009.0
20260503232747 45 201 0.0 2.0 0.00 0.00 0.00 56 1009.3
20260503232244 46 337 0.0 1.0 0.00 0.00 0.00 56 1009.0
20260503231742 46 284 2.0 3.0 0.00 0.00 0.00 55 1009.0
20260503231239 46 231 1.0 3.0 0.00 0.00 0.00 55 1009.0
20260503230734 46 322 2.0 4.0 0.00 0.00 0.00 55 1009.0
20260503230232 46 241 0.0 3.0 0.00 0.00 0.00 54 1009.0
20260503225730 47 310 0.0 4.0 0.00 0.00 0.00 53 1008.6
20260503225229 47 319 2.0 4.0 0.00 0.00 0.00 53 1008.6
20260503224727 47 300 1.0 2.0 0.00 0.00 0.00 53 1008.6
20260503224224 47 175 0.0 2.0 0.00 0.00 0.00 52 1008.6
20260503223722 47 260 0.0 2.0 0.00 0.00 0.00 52 1008.6
20260503223219 47 339 2.0 3.0 0.00 0.00 0.00 51 1008.6
20260503222715 47 290 0.0 2.0 0.00 0.00 0.00 51 1008.6
20260503222213 47 38 0.0 4.0 0.00 0.00 0.00 51 1009.0
20260503221712 47 343 1.0 3.0 0.00 0.00 0.00 52 1008.6
20260503221209 47 296 0.0 2.0 0.00 0.00 0.00 52 1008.3
20260503220705 47 326 4.0 4.0 0.00 0.00 0.00 51 1008.3
20260503220202 48 336 2.0 2.0 0.00 0.00 0.00 51 1008.3
20260503215659 48 338 2.0 3.0 0.00 0.00 0.00 50 1008.3
20260503215155 48 35 2.0 3.0 0.00 0.00 0.00 51 1008.3
20260503214654 47 312 2.0 4.0 0.00 0.00 0.00 51 1008.3
20260503214150 48 225 3.0 3.0 0.00 0.00 0.00 48 1008.3
20260503213649 48 203 1.0 4.0 0.00 0.00 0.00 49 1007.9
20260503213146 50 341 2.0 3.0 0.00 0.00 0.00 49 1008.3
20260503212643 50 330 3.0 4.0 0.00 0.00 0.00 50 1008.3
20260503212140 51 292 1.0 2.0 0.00 0.00 0.00 49 1008.3
20260503211638 50 320 1.0 4.0 0.00 0.00 0.00 49 1007.9
20260503211133 48 301 1.0 4.0 0.00 0.00 0.00 50 1007.9
20260503210630 50 322 2.0 3.0 0.00 0.00 0.00 49 1007.9
20260503210126 51 327 0.0 3.0 0.00 0.00 0.00 47 1007.9
20260503205622 51 289 2.0 3.0 0.00 0.00 0.00 47 1007.9
20260503205119 51 278 2.0 3.0 0.00 0.00 0.00 47 1007.9
20260503204615 50 294 2.0 3.0 0.00 0.00 0.00 47 1007.9
20260503204113 52 340 2.0 3.0 0.00 0.00 0.00 46 1007.9
20260503203610 52 92 4.0 6.0 0.00 0.00 0.00 47 1007.9
20260503203107 51 325 1.0 4.0 0.00 0.00 0.00 47 1007.9
20260503202605 52 342 2.0 4.0 0.00 0.00 0.00 46 1007.9